Wetterdaten: Donnerstag, 30.08.2012
Datum Zeit Temperatur Luftfeuchte Regen Wind Richtung Richtung Taupunkt Windchill Windben
30.08.2012 00:00 16,9 C 78 % 0,0 l/m 4,3 km/h (1 Bft) NO 45 13,0 C 17,4 C 5,0 km/h (1 Bft)
30.08.2012 00:05 16,9 C 77 % 0,0 l/m 2,9 km/h (1 Bft) SO 135 12,8 C 17,5 C 3,2 km/h (1 Bft)
30.08.2012 00:10 17,0 C 77 % 0,0 l/m 2,6 km/h (1 Bft) O-SO 112 12,9 C 17,6 C 2,9 km/h (1 Bft)
30.08.2012 00:15 17,1 C 77 % 0,0 l/m 2,1 km/h (1 Bft) NO 45 13,0 C 17,8 C 2,4 km/h (1 Bft)
30.08.2012 00:20 17,4 C 76 % 0,0 l/m 1,4 km/h (1 Bft) N-NO 22 13,1 C 17,8 C 1,8 km/h (1 Bft)
30.08.2012 00:25 17,4 C 76 % 0,0 l/m 1,0 km/h (0 Bft) N 360 13,1 C 17,8 C 3,2 km/h (1 Bft)
30.08.2012 00:30 17,5 C 75 % 0,0 l/m 1,1 km/h (1 Bft) N-NW 337 13,0 C 17,7 C 1,9 km/h (1 Bft)
30.08.2012 00:35 17,5 C 75 % 0,0 l/m 1,3 km/h (1 Bft) N 360 13,0 C 17,6 C 2,4 km/h (1 Bft)
30.08.2012 00:40 17,4 C 75 % 0,0 l/m 1,0 km/h (0 Bft) N-NO 22 12,9 C 17,5 C 0,0 km/h (0 Bft)
30.08.2012 00:45 17,4 C 74 % 0,0 l/m 0,5 km/h (0 Bft) NO 45 12,7 C 17,4 C 0,0 km/h (0 Bft)
30.08.2012 00:50 17,2 C 75 % 0,0 l/m 0,2 km/h (0 Bft) O 90 12,7 C 17,3 C 0,0 km/h (0 Bft)
30.08.2012 00:55 17,1 C 75 % 0,0 l/m 0,2 km/h (0 Bft) N 360 12,6 C 17,1 C 2,1 km/h (1 Bft)
30.08.2012 01:00 17,1 C 75 % 0,0 l/m 0,3 km/h (0 Bft) N-NO 22 12,6 C 17,1 C 0,0 km/h (0 Bft)
30.08.2012 01:05 17,0 C 75 % 0,0 l/m 0,2 km/h (0 Bft) N-NO 22 12,5 C 16,9 C 0,0 km/h (0 Bft)
30.08.2012 01:10 16,9 C 75 % 0,0 l/m 0,0 km/h (0 Bft) NO 45 12,4 C 16,8 C 0,0 km/h (0 Bft)
30.08.2012 01:15 16,3 C 76 % 0,0 l/m 0,2 km/h (0 Bft) O 90 12,1 C 16,5 C 0,0 km/h (0 Bft)
30.08.2012 01:20 16,1 C 77 % 0,0 l/m 0,2 km/h (0 Bft) N 360 12,1 C 16,2 C 1,9 km/h (1 Bft)
30.08.2012 01:25 16,1 C 79 % 0,0 l/m 0,5 km/h (0 Bft) N-NO 22 12,5 C 16,0 C 1,8 km/h (1 Bft)
30.08.2012 01:30 16,0 C 79 % 0,0 l/m 0,5 km/h (0 Bft) S-SO 157 12,4 C 15,8 C 0,0 km/h (0 Bft)
30.08.2012 01:35 15,7 C 80 % 0,0 l/m 0,0 km/h (0 Bft) N-NO 22 12,3 C 15,5 C 0,0 km/h (0 Bft)
30.08.2012 01:40 15,5 C 80 % 0,0 l/m 0,0 km/h (0 Bft) N 360 12,1 C 15,3 C 0,0 km/h (0 Bft)
30.08.2012 01:45 15,2 C 80 % 0,0 l/m 0,0 km/h (0 Bft) S-SW 202 11,8 C 15,1 C 0,0 km/h (0 Bft)
30.08.2012 01:50 15,4 C 81 % 0,0 l/m 0,0 km/h (0 Bft) NO 45 12,2 C 15,0 C 0,0 km/h (0 Bft)
30.08.2012 01:55 15,4 C 81 % 0,0 l/m 0,0 km/h (0 Bft) SO 135 12,2 C 15,0 C 0,0 km/h (0 Bft)
30.08.2012 02:00 15,1 C 82 % 0,0 l/m 0,2 km/h (0 Bft) N 360 12,0 C 14,9 C 1,8 km/h (1 Bft)
30.08.2012 02:05 15,6 C 82 % 0,0 l/m 0,3 km/h (0 Bft) NO 45 12,5 C 14,9 C 0,0 km/h (0 Bft)
30.08.2012 02:10 15,6 C 82 % 0,0 l/m 0,3 km/h (0 Bft) O 90 12,5 C 15,0 C 0,0 km/h (0 Bft)
30.08.2012 02:15 15,5 C 82 % 0,0 l/m 0,0 km/h (0 Bft) N 360 12,4 C 15,0 C 0,0 km/h (0 Bft)
30.08.2012 02:20 15,5 C 81 % 0,0 l/m 0,0 km/h (0 Bft) N 360 12,3 C 15,1 C 0,0 km/h (0 Bft)
30.08.2012 02:25 15,4 C 81 % 0,0 l/m 0,0 km/h (0 Bft) SO 135 12,2 C 15,2 C 0,0 km/h (0 Bft)
30.08.2012 02:30 15,1 C 81 % 0,0 l/m 0,0 km/h (0 Bft) S-SW 202 11,9 C 15,1 C 0,0 km/h (0 Bft)
30.08.2012 02:35 15,0 C 82 % 0,0 l/m 0,0 km/h (0 Bft) S 180 12,0 C 15,0 C 0,0 km/h (0 Bft)
30.08.2012 02:40 15,1 C 82 % 0,0 l/m 0,0 km/h (0 Bft) S 180 12,0 C 15,0 C 0,0 km/h (0 Bft)
30.08.2012 02:45 15,1 C 82 % 0,0 l/m 0,0 km/h (0 Bft) N-NO 22 12,0 C 15,0 C 0,0 km/h (0 Bft)
30.08.2012 02:50 15,1 C 82 % 0,0 l/m 0,3 km/h (0 Bft) S 180 12,0 C 15,0 C 2,4 km/h (1 Bft)
30.08.2012 02:55 15,3 C 82 % 0,0 l/m 1,1 km/h (1 Bft) S 180 12,2 C 15,3 C 0,0 km/h (0 Bft)
30.08.2012 03:00 15,3 C 83 % 0,0 l/m 1,1 km/h (1 Bft) N 360 12,4 C 15,3 C 2,7 km/h (1 Bft)
30.08.2012 03:05 15,5 C 82 % 0,0 l/m 0,3 km/h (0 Bft) NO 45 12,4 C 15,3 C 0,0 km/h (0 Bft)
30.08.2012 03:10 15,6 C 81 % 0,0 l/m 0,5 km/h (0 Bft) N-NO 22 12,3 C 15,4 C 0,0 km/h (0 Bft)
30.08.2012 03:15 15,6 C 81 % 0,0 l/m 0,2 km/h (0 Bft) S 180 12,3 C 15,5 C 0,0 km/h (0 Bft)
30.08.2012 03:20 15,5 C 81 % 0,0 l/m 0,0 km/h (0 Bft) O-NO 67 12,3 C 15,4 C 0,0 km/h (0 Bft)
30.08.2012 03:25 15,6 C 81 % 0,0 l/m 0,0 km/h (0 Bft) N-NW 337 12,3 C 15,4 C 0,0 km/h (0 Bft)
30.08.2012 03:30 15,6 C 81 % 0,0 l/m 0,0 km/h (0 Bft) W-SW 247 12,3 C 15,4 C 0,0 km/h (0 Bft)
30.08.2012 03:35 15,5 C 81 % 0,0 l/m 0,0 km/h (0 Bft) O-SO 112 12,3 C 15,5 C 0,0 km/h (0 Bft)
30.08.2012 03:40 15,5 C 81 % 0,0 l/m 0,3 km/h (0 Bft) O-SO 112 12,3 C 15,4 C 0,0 km/h (0 Bft)
30.08.2012 03:45 15,5 C 81 % 0,0 l/m 0,3 km/h (0 Bft) N-NO 22 12,3 C 15,4 C 0,0 km/h (0 Bft)
30.08.2012 03:50 15,5 C 81 % 0,0 l/m 0,0 km/h (0 Bft) SO 135 12,3 C 15,4 C 0,0 km/h (0 Bft)
30.08.2012 03:55 15,6 C 81 % 0,0 l/m 0,0 km/h (0 Bft) NO 45 12,3 C 15,5 C 0,0 km/h (0 Bft)
30.08.2012 04:00 15,6 C 81 % 0,0 l/m 0,0 km/h (0 Bft) S 180 12,3 C 15,6 C 0,0 km/h (0 Bft)
30.08.2012 04:05 16,0 C 80 % 0,0 l/m 0,2 km/h (0 Bft) N-NO 22 12,5 C 15,8 C 0,0 km/h (0 Bft)
30.08.2012 04:10 16,1 C 80 % 0,0 l/m 0,3 km/h (0 Bft) N 360 12,6 C 15,9 C 1,8 km/h (1 Bft)
30.08.2012 04:15 16,2 C 79 % 0,0 l/m 1,4 km/h (1 Bft) O-SO 112 12,6 C 16,1 C 5,6 km/h (1 Bft)
30.08.2012 04:20 16,2 C 79 % 0,0 l/m 2,6 km/h (1 Bft) O 90 12,6 C 16,2 C 4,8 km/h (1 Bft)
30.08.2012 04:25 16,5 C 79 % 0,0 l/m 3,7 km/h (1 Bft) O-SO 112 12,8 C 16,5 C 7,7 km/h (2 Bft)
30.08.2012 04:30 16,6 C 79 % 0,0 l/m 3,5 km/h (1 Bft) SO 135 12,9 C 16,7 C 6,0 km/h (2 Bft)
30.08.2012 04:35 16,5 C 80 % 0,0 l/m 3,4 km/h (1 Bft) SO 135 13,0 C 16,3 C 8,7 km/h (2 Bft)
30.08.2012 04:40 16,1 C 83 % 0,0 l/m 2,7 km/h (1 Bft) N-NW 337 13,2 C 15,9 C 1,6 km/h (1 Bft)
30.08.2012 04:45 15,4 C 87 % 0,0 l/m 2,7 km/h (1 Bft) N-NO 22 13,2 C 15,3 C 2,6 km/h (1 Bft)
30.08.2012 04:50 15,3 C 88 % 0,0 l/m 2,3 km/h (1 Bft) N 360 13,3 C 15,0 C 1,8 km/h (1 Bft)
30.08.2012 04:55 15,1 C 89 % 0,0 l/m 1,3 km/h (1 Bft) NW 315 13,3 C 14,9 C 3,5 km/h (1 Bft)
30.08.2012 05:00 15,0 C 90 % 0,0 l/m 1,6 km/h (1 Bft) N-NW 337 13,4 C 14,8 C 2,7 km/h (1 Bft)
30.08.2012 05:05 14,9 C 91 % 0,0 l/m 2,6 km/h (1 Bft) O-NO 67 13,4 C 14,6 C 1,6 km/h (1 Bft)
30.08.2012 05:10 14,9 C 91 % 0,0 l/m 2,4 km/h (1 Bft) N 360 13,4 C 14,6 C 4,2 km/h (1 Bft)
30.08.2012 05:15 14,9 C 91 % 0,0 l/m 1,4 km/h (1 Bft) N-NW 337 13,4 C 14,6 C 1,9 km/h (1 Bft)
30.08.2012 05:20 14,9 C 91 % 0,0 l/m 1,3 km/h (1 Bft) N-NW 337 13,4 C 14,6 C 0,0 km/h (0 Bft)
30.08.2012 05:25 15,0 C 91 % 0,0 l/m 1,9 km/h (1 Bft) N-NW 337 13,5 C 14,8 C 4,3 km/h (1 Bft)
30.08.2012 05:30 15,0 C 91 % 0,0 l/m 2,3 km/h (1 Bft) N 360 13,5 C 14,9 C 0,0 km/h (0 Bft)
30.08.2012 05:35 14,9 C 92 % 0,7 l/m 1,4 km/h (1 Bft) N-NW 337 13,6 C 14,9 C 3,2 km/h (1 Bft)
30.08.2012 05:40 14,7 C 92 % 0,0 l/m 1,8 km/h (1 Bft) N-NO 22 13,4 C 14,8 C 0,0 km/h (0 Bft)
30.08.2012 05:45 14,6 C 92 % 0,0 l/m 3,2 km/h (1 Bft) N-NW 337 13,3 C 14,6 C 10,1 km/h (2 Bft)
30.08.2012 05:50 14,6 C 93 % 0,7 l/m 2,6 km/h (1 Bft) N 360 13,5 C 14,6 C 3,4 km/h (1 Bft)
30.08.2012 05:55 14,6 C 93 % 0,0 l/m 1,9 km/h (1 Bft) N-NW 337 13,5 C 14,6 C 2,1 km/h (1 Bft)
30.08.2012 06:00 14,6 C 93 % 0,0 l/m 1,8 km/h (1 Bft) NW 315 13,5 C 14,6 C 3,4 km/h (1 Bft)
30.08.2012 06:05 14,6 C 93 % 0,0 l/m 1,8 km/h (1 Bft) N-NO 22 13,5 C 14,6 C 2,4 km/h (1 Bft)
30.08.2012 06:10 14,6 C 93 % 0,0 l/m 1,4 km/h (1 Bft) O-SO 112 13,5 C 14,6 C 0,0 km/h (0 Bft)
30.08.2012 06:15 14,6 C 93 % 0,0 l/m 2,3 km/h (1 Bft) S 180 13,5 C 14,6 C 10,6 km/h (2 Bft)
30.08.2012 06:20 14,6 C 93 % 0,0 l/m 4,2 km/h (1 Bft) O-SO 112 13,5 C 14,6 C 6,0 km/h (2 Bft)
30.08.2012 06:25 14,5 C 93 % 0,0 l/m 4,2 km/h (1 Bft) NO 45 13,4 C 14,6 C 0,0 km/h (0 Bft)
30.08.2012 06:30 14,5 C 93 % 0,0 l/m 1,6 km/h (1 Bft) N-NO 22 13,4 C 14,6 C 0,0 km/h (0 Bft)
30.08.2012 06:35 14,5 C 94 % 0,0 l/m 0,0 km/h (0 Bft) N-NO 22 13,5 C 14,5 C 0,0 km/h (0 Bft)
30.08.2012 06:40 14,4 C 94 % 0,0 l/m 0,5 km/h (0 Bft) NO 45 13,4 C 14,4 C 2,4 km/h (1 Bft)
30.08.2012 06:45 14,3 C 94 % 0,0 l/m 0,6 km/h (0 Bft) NO 45 13,3 C 14,3 C 0,0 km/h (0 Bft)
30.08.2012 06:50 14,2 C 94 % 0,0 l/m 0,5 km/h (0 Bft) NO 45 13,2 C 14,2 C 2,7 km/h (1 Bft)
30.08.2012 06:55 14,1 C 94 % 0,0 l/m 0,2 km/h (0 Bft) NO 45 13,1 C 14,0 C 0,0 km/h (0 Bft)
30.08.2012 07:00 14,1 C 94 % 0,0 l/m 0,2 km/h (0 Bft) NO 45 13,1 C 14,0 C 0,0 km/h (0 Bft)
30.08.2012 07:05 14,0 C 93 % 0,0 l/m 0,5 km/h (0 Bft) N 360 12,9 C 13,9 C 2,3 km/h (1 Bft)
30.08.2012 07:10 14,0 C 93 % 0,0 l/m 0,8 km/h (0 Bft) N-NO 22 12,9 C 13,9 C 0,0 km/h (0 Bft)
30.08.2012 07:15 14,0 C 93 % 0,0 l/m 1,0 km/h (0 Bft) N 360 12,9 C 13,9 C 2,1 km/h (1 Bft)
30.08.2012 07:20 14,1 C 93 % 0,0 l/m 0,6 km/h (0 Bft) N-NO 22 13,0 C 13,9 C 1,8 km/h (1 Bft)
30.08.2012 07:25 14,1 C 93 % 0,0 l/m 1,3 km/h (1 Bft) N 360 13,0 C 14,0 C 2,1 km/h (1 Bft)
30.08.2012 07:30 14,2 C 93 % 0,0 l/m 0,8 km/h (0 Bft) N-NW 337 13,1 C 14,1 C 0,0 km/h (0 Bft)
30.08.2012 07:35 14,3 C 93 % 0,0 l/m 0,0 km/h (0 Bft) O-SO 112 13,2 C 15,3 C 0,0 km/h (0 Bft)
30.08.2012 07:40 14,3 C 93 % 0,0 l/m 0,0 km/h (0 Bft) NW 315 13,2 C 16,4 C 0,0 km/h (0 Bft)
30.08.2012 07:45 14,6 C 93 % 0,0 l/m 0,0 km/h (0 Bft) N-NW 337 13,5 C 17,1 C 1,9 km/h (1 Bft)
30.08.2012 07:50 15,1 C 93 % 0,0 l/m 0,0 km/h (0 Bft) N-NW 337 14,0 C 17,6 C 0,0 km/h (0 Bft)
30.08.2012 07:55 15,6 C 93 % 0,0 l/m 0,0 km/h (0 Bft) N-NW 337 14,5 C 18,5 C 0,0 km/h (0 Bft)
30.08.2012 08:00 16,2 C 92 % 0,0 l/m 0,3 km/h (0 Bft) W-NW 292 15,0 C 18,3 C 1,6 km/h (1 Bft)
30.08.2012 08:05 16,4 C 91 % 0,0 l/m 0,3 km/h (0 Bft) NO 45 15,6 C 18,7 C 0,0 km/h (0 Bft)
30.08.2012 08:10 17,0 C 90 % 0,0 l/m 0,0 km/h (0 Bft) N 360 15,9 C 18,8 C 0,0 km/h (0 Bft)
30.08.2012 08:15 18,3 C 89 % 0,0 l/m 0,2 km/h (0 Bft) S 180 16,8 C 19,5 C 2,9 km/h (1 Bft)
30.08.2012 08:20 18,9 C 87 % 0,0 l/m 0,3 km/h (0 Bft) N-NW 337 16,7 C 20,4 C 0,0 km/h (0 Bft)
30.08.2012 08:25 18,0 C 85 % 0,0 l/m 0,5 km/h (0 Bft) N-NW 337 15,4 C 21,2 C 0,0 km/h (0 Bft)
30.08.2012 08:30 17,0 C 87 % 0,0 l/m 0,2 km/h (0 Bft) SO 135 14,8 C 20,2 C 0,0 km/h (0 Bft)
30.08.2012 08:35 17,5 C 88 % 0,0 l/m 0,0 km/h (0 Bft) N 360 15,5 C 19,5 C 0,0 km/h (0 Bft)
30.08.2012 08:40 17,9 C 88 % 0,0 l/m 0,0 km/h (0 Bft) O-NO 67 15,9 C 19,8 C 0,0 km/h (0 Bft)
30.08.2012 08:45 17,7 C 86 % 0,0 l/m 0,0 km/h (0 Bft) NO 45 15,3 C 20,5 C 0,0 km/h (0 Bft)
30.08.2012 08:50 17,4 C 87 % 0,0 l/m 0,0 km/h (0 Bft) N 360 15,2 C 20,3 C 0,0 km/h (0 Bft)
30.08.2012 08:55 17,4 C 86 % 0,0 l/m 0,0 km/h (0 Bft) W 270 15,0 C 20,1 C 0,0 km/h (0 Bft)
30.08.2012 09:00 17,8 C 87 % 0,0 l/m 0,0 km/h (0 Bft) N-NO 22 15,6 C 20,0 C 0,0 km/h (0 Bft)
30.08.2012 09:05 18,1 C 87 % 0,0 l/m 0,0 km/h (0 Bft) N 360 15,9 C 20,3 C 0,0 km/h (0 Bft)
30.08.2012 09:10 18,3 C 86 % 0,0 l/m 0,0 km/h (0 Bft) N 360 15,9 C 20,3 C 0,0 km/h (0 Bft)
30.08.2012 09:15 18,9 C 87 % 0,0 l/m 0,0 km/h (0 Bft) W-NW 292 16,7 C 20,6 C 0,0 km/h (0 Bft)
30.08.2012 09:20 18,7 C 86 % 0,0 l/m 0,0 km/h (0 Bft) W-SW 247 16,3 C 20,8 C 0,0 km/h (0 Bft)
30.08.2012 09:25 18,6 C 87 % 0,0 l/m 0,0 km/h (0 Bft) NO 45 16,4 C 20,9 C 0,0 km/h (0 Bft)
30.08.2012 09:30 18,8 C 87 % 0,0 l/m 0,0 km/h (0 Bft) SO 135 16,6 C 20,9 C 0,0 km/h (0 Bft)
30.08.2012 09:35 19,1 C 87 % 0,0 l/m 0,0 km/h (0 Bft) N-NW 337 16,9 C 20,8 C 0,0 km/h (0 Bft)
30.08.2012 09:40 19,1 C 87 % 0,0 l/m 0,0 km/h (0 Bft) W 270 16,9 C 20,8 C 0,0 km/h (0 Bft)
30.08.2012 09:45 18,7 C 86 % 0,0 l/m 0,0 km/h (0 Bft) O-SO 112 16,3 C 21,0 C 0,0 km/h (0 Bft)
30.08.2012 09:50 19,1 C 87 % 0,0 l/m 0,0 km/h (0 Bft) SO 135 16,9 C 21,1 C 0,0 km/h (0 Bft)
30.08.2012 09:55 19,3 C 87 % 0,0 l/m 0,0 km/h (0 Bft) SW 225 17,1 C 21,3 C 0,0 km/h (0 Bft)
30.08.2012 10:00 19,3 C 87 % 0,0 l/m 0,0 km/h (0 Bft) S 180 17,1 C 21,3 C 0,0 km/h (0 Bft)
30.08.2012 10:05 19,6 C 86 % 0,0 l/m 0,0 km/h (0 Bft) S-SW 202 17,2 C 21,7 C 0,0 km/h (0 Bft)
30.08.2012 10:10 19,7 C 87 % 0,0 l/m 0,0 km/h (0 Bft) S-SW 202 17,5 C 21,9 C 0,0 km/h (0 Bft)
30.08.2012 10:15 19,8 C 86 % 0,0 l/m 0,0 km/h (0 Bft) W 270 17,4 C 22,0 C 0,0 km/h (0 Bft)
30.08.2012 10:20 19,8 C 83 % 0,0 l/m 0,2 km/h (0 Bft) NO 45 16,8 C 22,1 C 3,7 km/h (1 Bft)
30.08.2012 10:25 19,6 C 83 % 0,0 l/m 1,9 km/h (1 Bft) N-NW 337 16,6 C 21,9 C 3,7 km/h (1 Bft)
30.08.2012 10:30 19,9 C 84 % 0,0 l/m 3,1 km/h (1 Bft) SW 225 17,1 C 21,9 C 6,1 km/h (2 Bft)
30.08.2012 10:35 20,0 C 83 % 0,0 l/m 3,7 km/h (1 Bft) S-SW 202 17,0 C 21,6 C 3,9 km/h (1 Bft)
30.08.2012 10:40 20,0 C 83 % 0,0 l/m 4,0 km/h (1 Bft) W-SW 247 17,0 C 21,6 C 5,3 km/h (1 Bft)
30.08.2012 10:45 20,2 C 83 % 0,0 l/m 3,1 km/h (1 Bft) W-SW 247 17,2 C 21,7 C 2,3 km/h (1 Bft)
30.08.2012 10:50 20,4 C 82 % 0,0 l/m 2,6 km/h (1 Bft) W-NW 292 17,2 C 21,8 C 1,9 km/h (1 Bft)
30.08.2012 10:55 20,5 C 84 % 0,0 l/m 1,3 km/h (1 Bft) W 270 17,7 C 22,1 C 0,0 km/h (0 Bft)
30.08.2012 11:00 20,3 C 84 % 0,0 l/m 1,3 km/h (1 Bft) NW 315 17,5 C 22,0 C 1,9 km/h (1 Bft)
30.08.2012 11:05 20,3 C 84 % 0,0 l/m 2,1 km/h (1 Bft) SW 225 17,5 C 21,8 C 3,5 km/h (1 Bft)
30.08.2012 11:10 20,4 C 84 % 0,0 l/m 2,6 km/h (1 Bft) W-NW 292 17,6 C 21,7 C 3,1 km/h (1 Bft)
30.08.2012 11:15 20,2 C 84 % 0,0 l/m 2,3 km/h (1 Bft) W-SW 247 17,4 C 21,6 C 0,0 km/h (0 Bft)
30.08.2012 11:20 20,5 C 85 % 0,0 l/m 1,8 km/h (1 Bft) SW 225 17,9 C 21,7 C 2,6 km/h (1 Bft)
30.08.2012 11:25 20,5 C 85 % 0,0 l/m 2,1 km/h (1 Bft) W 270 17,9 C 21,6 C 3,7 km/h (1 Bft)
30.08.2012 11:30 20,1 C 82 % 0,0 l/m 2,4 km/h (1 Bft) W-SW 247 16,9 C 21,5 C 1,8 km/h (1 Bft)
30.08.2012 11:35 20,4 C 85 % 0,0 l/m 1,4 km/h (1 Bft) O-SO 112 17,8 C 21,7 C 1,9 km/h (1 Bft)
30.08.2012 11:40 20,9 C 84 % 0,0 l/m 1,0 km/h (0 Bft) S-SW 202 18,1 C 21,9 C 2,1 km/h (1 Bft)
30.08.2012 11:45 21,5 C 82 % 0,0 l/m 0,8 km/h (0 Bft) S-SO 157 18,3 C 22,7 C 0,0 km/h (0 Bft)
30.08.2012 11:50 21,7 C 82 % 0,0 l/m 0,5 km/h (0 Bft) S-SW 202 18,5 C 23,4 C 2,7 km/h (1 Bft)
30.08.2012 11:55 21,7 C 79 % 0,0 l/m 1,1 km/h (1 Bft) W-NW 292 17,9 C 24,0 C 5,1 km/h (1 Bft)
30.08.2012 12:00 21,4 C 77 % 0,0 l/m 1,9 km/h (1 Bft) W-NW 292 17,2 C 23,9 C 2,1 km/h (1 Bft)
30.08.2012 12:05 21,9 C 74 % 0,0 l/m 1,8 km/h (1 Bft) N 360 17,0 C 23,9 C 1,9 km/h (1 Bft)
30.08.2012 12:10 21,9 C 75 % 0,0 l/m 1,6 km/h (1 Bft) W-NW 292 17,3 C 24,1 C 3,5 km/h (1 Bft)
30.08.2012 12:15 21,6 C 72 % 0,0 l/m 1,9 km/h (1 Bft) W-NW 292 16,3 C 23,9 C 5,6 km/h (1 Bft)
30.08.2012 12:20 21,5 C 69 % 0,0 l/m 1,9 km/h (1 Bft) O 90 15,6 C 23,7 C 0,0 km/h (0 Bft)
30.08.2012 12:25 21,4 C 67 % 0,0 l/m 2,1 km/h (1 Bft) N-NW 337 15,0 C 23,3 C 1,8 km/h (1 Bft)
30.08.2012 12:30 21,7 C 66 % 0,0 l/m 1,3 km/h (1 Bft) N-NO 22 15,1 C 23,2 C 0,0 km/h (0 Bft)
30.08.2012 12:35 22,7 C 64 % 0,0 l/m 0,6 km/h (0 Bft) W-SW 247 15,5 C 23,9 C 3,7 km/h (1 Bft)
30.08.2012 12:40 22,8 C 55 % 0,0 l/m 1,1 km/h (1 Bft) N-NW 337 13,3 C 24,5 C 3,5 km/h (1 Bft)
30.08.2012 12:45 23,3 C 58 % 0,0 l/m 2,3 km/h (1 Bft) W 270 14,6 C 25,2 C 5,8 km/h (2 Bft)
30.08.2012 12:50 23,5 C 55 % 0,0 l/m 2,6 km/h (1 Bft) N-NO 22 13,9 C 25,3 C 2,6 km/h (1 Bft)
30.08.2012 12:55 24,0 C 56 % 0,0 l/m 2,4 km/h (1 Bft) SW 225 14,7 C 26,1 C 1,6 km/h (1 Bft)
30.08.2012 13:00 24,6 C 53 % 0,0 l/m 2,6 km/h (1 Bft) S-SW 202 14,4 C 26,5 C 7,7 km/h (2 Bft)
30.08.2012 13:05 24,5 C 52 % 0,0 l/m 2,7 km/h (1 Bft) NW 315 14,0 C 26,8 C 2,4 km/h (1 Bft)
30.08.2012 13:10 24,6 C 51 % 0,0 l/m 3,1 km/h (1 Bft) N-NO 22 13,8 C 27,0 C 3,4 km/h (1 Bft)
30.08.2012 13:15 24,6 C 53 % 0,0 l/m 2,7 km/h (1 Bft) N 360 14,4 C 27,2 C 0,0 km/h (0 Bft)
30.08.2012 13:20 24,3 C 53 % 0,0 l/m 2,6 km/h (1 Bft) W 270 14,1 C 27,2 C 3,2 km/h (1 Bft)
30.08.2012 13:25 23,7 C 53 % 0,0 l/m 2,3 km/h (1 Bft) N 360 13,5 C 26,6 C 0,0 km/h (0 Bft)
30.08.2012 13:30 22,5 C 57 % 0,0 l/m 2,1 km/h (1 Bft) N-NW 337 13,5 C 26,0 C 2,4 km/h (1 Bft)
30.08.2012 13:35 23,2 C 56 % 0,0 l/m 1,1 km/h (1 Bft) W-SW 247 13,9 C 25,2 C 0,0 km/h (0 Bft)
30.08.2012 13:40 23,0 C 56 % 0,0 l/m 1,6 km/h (1 Bft) W-SW 247 13,7 C 24,9 C 3,2 km/h (1 Bft)
30.08.2012 13:45 22,7 C 56 % 0,0 l/m 1,8 km/h (1 Bft) N-NO 22 13,5 C 24,7 C 2,7 km/h (1 Bft)
30.08.2012 13:50 22,8 C 53 % 0,0 l/m 1,8 km/h (1 Bft) N 360 12,7 C 24,7 C 2,9 km/h (1 Bft)
30.08.2012 13:55 23,3 C 53 % 0,0 l/m 2,4 km/h (1 Bft) W-SW 247 13,2 C 24,8 C 2,4 km/h (1 Bft)
30.08.2012 14:00 23,3 C 54 % 0,0 l/m 2,4 km/h (1 Bft) W-NW 292 13,5 C 24,9 C 3,2 km/h (1 Bft)
30.08.2012 14:05 23,0 C 52 % 0,0 l/m 1,8 km/h (1 Bft) N 360 12,6 C 25,0 C 0,0 km/h (0 Bft)
30.08.2012 14:10 22,6 C 57 % 0,0 l/m 1,8 km/h (1 Bft) W-SW 247 13,6 C 25,0 C 4,2 km/h (1 Bft)
30.08.2012 14:15 22,4 C 57 % 0,0 l/m 2,7 km/h (1 Bft) W 270 13,5 C 24,3 C 3,5 km/h (1 Bft)
30.08.2012 14:20 22,2 C 57 % 0,0 l/m 3,9 km/h (1 Bft) W 270 13,3 C 23,9 C 9,7 km/h (2 Bft)
30.08.2012 14:25 21,7 C 59 % 0,0 l/m 3,9 km/h (1 Bft) W-NW 292 13,3 C 23,2 C 3,9 km/h (1 Bft)
30.08.2012 14:30 21,7 C 60 % 0,0 l/m 3,7 km/h (1 Bft) N-NW 337 13,6 C 23,0 C 0,0 km/h (0 Bft)
30.08.2012 14:35 22,1 C 61 % 0,0 l/m 2,4 km/h (1 Bft) W 270 14,2 C 23,1 C 4,0 km/h (1 Bft)
30.08.2012 14:40 22,3 C 62 % 0,0 l/m 1,9 km/h (1 Bft) W-NW 292 14,7 C 23,1 C 6,6 km/h (2 Bft)
30.08.2012 14:45 21,7 C 63 % 0,0 l/m 2,7 km/h (1 Bft) W 270 14,3 C 22,9 C 3,9 km/h (1 Bft)
30.08.2012 14:50 21,5 C 62 % 0,0 l/m 2,6 km/h (1 Bft) S-SO 157 13,9 C 22,7 C 0,0 km/h (0 Bft)
30.08.2012 14:55 20,8 C 65 % 0,0 l/m 1,3 km/h (1 Bft) SW 225 14,0 C 22,3 C 3,7 km/h (1 Bft)
30.08.2012 15:00 20,5 C 66 % 0,0 l/m 1,0 km/h (0 Bft) W-SW 247 13,9 C 22,0 C 2,4 km/h (1 Bft)
30.08.2012 15:05 20,4 C 67 % 0,0 l/m 1,8 km/h (1 Bft) O-SO 112 14,1 C 21,4 C 0,0 km/h (0 Bft)
30.08.2012 15:10 20,2 C 67 % 0,0 l/m 1,4 km/h (1 Bft) S 180 13,9 C 21,1 C 1,8 km/h (1 Bft)
30.08.2012 15:15 19,7 C 69 % 0,0 l/m 0,5 km/h (0 Bft) S 180 13,8 C 20,1 C 1,6 km/h (1 Bft)
30.08.2012 15:20 19,4 C 69 % 0,0 l/m 0,6 km/h (0 Bft) W-SW 247 13,6 C 19,2 C 0,0 km/h (0 Bft)
30.08.2012 15:25 18,6 C 75 % 0,0 l/m 0,3 km/h (0 Bft) NO 45 14,1 C 18,4 C 0,0 km/h (0 Bft)
30.08.2012 15:30 17,8 C 79 % 0,0 l/m 0,2 km/h (0 Bft) N-NO 22 14,1 C 17,9 C 0,0 km/h (0 Bft)
30.08.2012 15:35 17,8 C 83 % 0,0 l/m 1,0 km/h (0 Bft) N-NO 22 14,9 C 17,3 C 2,9 km/h (1 Bft)
30.08.2012 15:40 17,6 C 84 % 0,0 l/m 2,9 km/h (1 Bft) O-SO 112 14,9 C 17,1 C 10,8 km/h (2 Bft)
30.08.2012 15:45 15,0 C 84 % 4,1 l/m 7,7 km/h (2 Bft) O 90 12,3 C 15,0 C 18,5 km/h (3 Bft)
30.08.2012 15:50 14,5 C 87 % 4,8 l/m 7,7 km/h (2 Bft) N-NO 22 12,4 C 14,1 C 5,6 km/h (1 Bft)
30.08.2012 15:55 14,5 C 89 % 1,4 l/m 3,4 km/h (1 Bft) N-NW 337 12,7 C 14,5 C 2,3 km/h (1 Bft)
30.08.2012 16:00 14,7 C 89 % 0,0 l/m 3,4 km/h (1 Bft) O 90 12,9 C 14,5 C 2,6 km/h (1 Bft)
30.08.2012 16:05 14,5 C 90 % 0,7 l/m 2,3 km/h (1 Bft) N-NO 22 12,9 C 14,5 C 3,2 km/h (1 Bft)
30.08.2012 16:10 14,4 C 91 % 1,4 l/m 2,4 km/h (1 Bft) NO 45 12,9 C 14,5 C 5,5 km/h (1 Bft)
30.08.2012 16:15 14,5 C 91 % 2,1 l/m 2,1 km/h (1 Bft) N-NO 22 13,0 C 14,4 C 0,0 km/h (0 Bft)
30.08.2012 16:20 14,5 C 91 % 0,7 l/m 1,3 km/h (1 Bft) N-NO 22 13,0 C 14,4 C 0,0 km/h (0 Bft)
30.08.2012 16:25 14,7 C 92 % 0,7 l/m 1,3 km/h (1 Bft) NO 45 13,4 C 14,6 C 0,0 km/h (0 Bft)
30.08.2012 16:30 15,1 C 92 % 0,0 l/m 2,4 km/h (1 Bft) O-SO 112 13,8 C 14,8 C 5,5 km/h (1 Bft)
30.08.2012 16:35 15,2 C 92 % 0,0 l/m 1,8 km/h (1 Bft) NO 45 13,9 C 15,1 C 0,0 km/h (0 Bft)
30.08.2012 16:40 15,4 C 92 % 0,0 l/m 1,0 km/h (0 Bft) SO 135 14,1 C 15,4 C 2,1 km/h (1 Bft)
30.08.2012 16:45 15,2 C 93 % 0,0 l/m 0,8 km/h (0 Bft) NO 45 14,1 C 15,4 C 0,0 km/h (0 Bft)
30.08.2012 16:50 15,2 C 93 % 0,0 l/m 0,5 km/h (0 Bft) NO 45 14,1 C 15,4 C 0,0 km/h (0 Bft)
30.08.2012 16:55 15,1 C 93 % 0,7 l/m 0,2 km/h (0 Bft) N-NO 22 14,0 C 15,4 C 0,0 km/h (0 Bft)
30.08.2012 17:00 15,2 C 93 % 0,0 l/m 0,2 km/h (0 Bft) N 360 14,1 C 15,4 C 0,0 km/h (0 Bft)
30.08.2012 17:05 15,6 C 93 % 0,0 l/m 0,2 km/h (0 Bft) O-SO 112 14,5 C 15,5 C 2,1 km/h (1 Bft)
30.08.2012 17:10 15,9 C 93 % 0,0 l/m 0,3 km/h (0 Bft) O-SO 112 14,8 C 15,7 C 0,0 km/h (0 Bft)
30.08.2012 17:15 16,0 C 92 % 0,0 l/m 1,3 km/h (1 Bft) SO 135 14,7 C 15,9 C 4,2 km/h (1 Bft)
30.08.2012 17:20 16,1 C 92 % 0,0 l/m 2,1 km/h (1 Bft) O-SO 112 14,8 C 15,9 C 1,9 km/h (1 Bft)
30.08.2012 17:25 16,1 C 92 % 0,0 l/m 1,9 km/h (1 Bft) N-NO 22 14,8 C 16,0 C 0,0 km/h (0 Bft)
30.08.2012 17:30 15,9 C 93 % 0,0 l/m 1,1 km/h (1 Bft) N-NO 22 14,8 C 16,0 C 0,0 km/h (0 Bft)
30.08.2012 17:35 15,8 C 93 % 0,0 l/m 0,3 km/h (0 Bft) O-SO 112 14,7 C 16,1 C 0,0 km/h (0 Bft)
30.08.2012 17:40 15,9 C 93 % 0,0 l/m 0,3 km/h (0 Bft) NO 45 14,8 C 16,1 C 0,0 km/h (0 Bft)
30.08.2012 17:45 16,0 C 92 % 0,0 l/m 0,2 km/h (0 Bft) NO 45 14,7 C 16,2 C 0,0 km/h (0 Bft)
30.08.2012 17:50 15,9 C 93 % 0,0 l/m 0,2 km/h (0 Bft) NO 45 14,8 C 16,2 C 2,1 km/h (1 Bft)
30.08.2012 17:55 15,9 C 93 % 0,0 l/m 0,5 km/h (0 Bft) N-NO 22 14,8 C 16,2 C 0,0 km/h (0 Bft)
30.08.2012 18:00 15,9 C 94 % 0,0 l/m 0,5 km/h (0 Bft) NO 45 14,9 C 16,2 C 0,0 km/h (0 Bft)
30.08.2012 18:05 15,9 C 94 % 0,0 l/m 0,8 km/h (0 Bft) N 360 14,9 C 16,2 C 2,1 km/h (1 Bft)
30.08.2012 18:10 15,8 C 94 % 0,0 l/m 1,1 km/h (1 Bft) O 90 14,8 C 16,1 C 2,3 km/h (1 Bft)
30.08.2012 18:15 15,8 C 94 % 0,7 l/m 1,3 km/h (1 Bft) SO 135 14,8 C 16,0 C 6,0 km/h (2 Bft)
30.08.2012 18:20 15,8 C 94 % 0,0 l/m 2,7 km/h (1 Bft) SO 135 14,8 C 15,9 C 9,5 km/h (2 Bft)
30.08.2012 18:25 15,7 C 94 % 1,4 l/m 4,5 km/h (1 Bft) SO 135 14,7 C 15,8 C 7,6 km/h (2 Bft)
30.08.2012 18:30 15,7 C 94 % 1,4 l/m 4,5 km/h (1 Bft) O-SO 112 14,7 C 15,8 C 5,8 km/h (2 Bft)
30.08.2012 18:35 15,7 C 94 % 0,0 l/m 3,4 km/h (1 Bft) O-SO 112 14,7 C 15,7 C 4,7 km/h (1 Bft)
30.08.2012 18:40 15,6 C 94 % 0,7 l/m 5,3 km/h (1 Bft) S 180 14,6 C 15,6 C 7,2 km/h (2 Bft)
30.08.2012 18:45 15,5 C 94 % 0,7 l/m 7,2 km/h (2 Bft) SO 135 14,5 C 15,1 C 7,6 km/h (2 Bft)
30.08.2012 18:50 15,3 C 94 % 0,0 l/m 8,7 km/h (2 Bft) SO 135 14,3 C 14,0 C 15,9 km/h (3 Bft)
30.08.2012 18:55 14,5 C 94 % 0,7 l/m 10,5 km/h (2 Bft) SO 135 13,5 C 12,1 C 20,9 km/h (4 Bft)
30.08.2012 19:00 14,3 C 94 % 0,7 l/m 10,6 km/h (2 Bft) S 180 13,3 C 11,6 C 10,9 km/h (2 Bft)
30.08.2012 19:05 14,2 C 94 % 0,0 l/m 9,7 km/h (2 Bft) S-SO 157 13,2 C 11,8 C 11,4 km/h (2 Bft)
30.08.2012 19:10 14,3 C 94 % 0,0 l/m 8,2 km/h (2 Bft) S 180 13,3 C 12,7 C 5,5 km/h (1 Bft)
30.08.2012 19:15 14,2 C 94 % 0,0 l/m 6,6 km/h (2 Bft) SO 135 13,2 C 14,0 C 13,4 km/h (3 Bft)
30.08.2012 19:20 14,1 C 94 % 0,0 l/m 7,1 km/h (2 Bft) S-SO 157 13,1 C 13,5 C 7,4 km/h (2 Bft)
30.08.2012 19:25 14,0 C 94 % 0,7 l/m 7,9 km/h (2 Bft) O-SO 112 13,0 C 12,8 C 7,4 km/h (2 Bft)
30.08.2012 19:30 14,0 C 94 % 0,0 l/m 7,6 km/h (2 Bft) O 90 13,0 C 12,9 C 7,4 km/h (2 Bft)
30.08.2012 19:35 13,8 C 94 % 0,0 l/m 7,7 km/h (2 Bft) SO 135 12,9 C 12,6 C 10,3 km/h (2 Bft)
30.08.2012 19:40 13,7 C 94 % 0,0 l/m 7,4 km/h (2 Bft) O-SO 112 12,8 C 12,8 C 11,1 km/h (2 Bft)
30.08.2012 19:45 13,7 C 94 % 0,0 l/m 6,9 km/h (2 Bft) N-NO 22 12,8 C 13,1 C 4,0 km/h (1 Bft)
30.08.2012 19:50 13,6 C 94 % 0,0 l/m 6,3 km/h (2 Bft) O 90 12,7 C 13,6 C 6,3 km/h (2 Bft)
30.08.2012 19:55 13,4 C 94 % 0,0 l/m 4,0 km/h (1 Bft) N 360 12,5 C 13,4 C 2,1 km/h (1 Bft)
30.08.2012 20:00 13,5 C 94 % 0,0 l/m 3,7 km/h (1 Bft) SO 135 12,6 C 13,4 C 1,8 km/h (1 Bft)
30.08.2012 20:05 13,6 C 94 % 0,0 l/m 3,7 km/h (1 Bft) N 360 12,7 C 13,4 C 4,5 km/h (1 Bft)
30.08.2012 20:10 13,6 C 94 % 0,0 l/m 4,3 km/h (1 Bft) O 90 12,7 C 13,5 C 3,9 km/h (1 Bft)
30.08.2012 20:15 13,7 C 94 % 0,0 l/m 3,5 km/h (1 Bft) O-SO 112 12,8 C 13,6 C 3,1 km/h (1 Bft)
30.08.2012 20:20 13,7 C 94 % 0,0 l/m 3,4 km/h (1 Bft) O-NO 67 12,8 C 13,6 C 5,5 km/h (1 Bft)
30.08.2012 20:25 13,7 C 94 % 0,0 l/m 3,2 km/h (1 Bft) O-SO 112 12,8 C 13,6 C 3,9 km/h (1 Bft)
30.08.2012 20:30 13,7 C 94 % 0,0 l/m 3,2 km/h (1 Bft) SO 135 12,8 C 13,7 C 4,5 km/h (1 Bft)
30.08.2012 20:35 13,7 C 94 % 0,0 l/m 4,3 km/h (1 Bft) O-SO 112 12,8 C 13,6 C 8,5 km/h (2 Bft)
30.08.2012 20:40 13,6 C 94 % 0,0 l/m 5,1 km/h (1 Bft) O 90 12,7 C 13,6 C 5,0 km/h (1 Bft)
30.08.2012 20:45 13,5 C 94 % 0,0 l/m 5,6 km/h (1 Bft) N-NO 22 12,6 C 13,5 C 1,8 km/h (1 Bft)
30.08.2012 20:50 13,4 C 94 % 0,0 l/m 4,8 km/h (1 Bft) S 180 12,5 C 13,4 C 7,6 km/h (2 Bft)
30.08.2012 20:55 13,4 C 94 % 0,0 l/m 4,2 km/h (1 Bft) SO 135 12,5 C 13,3 C 7,7 km/h (2 Bft)
30.08.2012 21:00 13,3 C 94 % 0,0 l/m 5,0 km/h (1 Bft) NO 45 12,4 C 13,3 C 2,7 km/h (1 Bft)
30.08.2012 21:05 13,3 C 94 % 0,0 l/m 4,2 km/h (1 Bft) O-SO 112 12,4 C 13,3 C 4,3 km/h (1 Bft)
30.08.2012 21:10 13,4 C 94 % 0,0 l/m 4,3 km/h (1 Bft) S-SO 157 12,5 C 13,2 C 4,8 km/h (1 Bft)
30.08.2012 21:15 13,4 C 94 % 0,0 l/m 4,8 km/h (1 Bft) O-NO 67 12,5 C 13,3 C 3,9 km/h (1 Bft)
30.08.2012 21:20 13,4 C 94 % 0,7 l/m 3,1 km/h (1 Bft) O-SO 112 12,5 C 13,3 C 2,4 km/h (1 Bft)
30.08.2012 21:25 13,4 C 94 % 0,0 l/m 2,7 km/h (1 Bft) O 90 12,5 C 13,3 C 6,6 km/h (2 Bft)
30.08.2012 21:30 13,4 C 94 % 0,0 l/m 3,2 km/h (1 Bft) S 180 12,5 C 13,3 C 3,9 km/h (1 Bft)
30.08.2012 21:35 13,4 C 94 % 0,0 l/m 3,7 km/h (1 Bft) O-SO 112 12,5 C 13,3 C 2,1 km/h (1 Bft)
30.08.2012 21:40 13,4 C 94 % 0,0 l/m 3,5 km/h (1 Bft) O-SO 112 12,5 C 13,3 C 5,3 km/h (1 Bft)
30.08.2012 21:45 13,4 C 94 % 0,0 l/m 3,7 km/h (1 Bft) O-SO 112 12,5 C 13,4 C 5,6 km/h (1 Bft)
30.08.2012 21:50 13,4 C 94 % 0,0 l/m 5,0 km/h (1 Bft) O-SO 112 12,5 C 13,4 C 25,7 km/h (4 Bft)
30.08.2012 21:55 12,4 C 95 % 1,4 l/m 7,9 km/h (2 Bft) O-SO 112 11,6 C 11,2 C 10,6 km/h (2 Bft)
30.08.2012 22:00 12,1 C 95 % 0,0 l/m 9,0 km/h (2 Bft) SO 135 11,3 C 9,8 C 6,1 km/h (2 Bft)
30.08.2012 22:05 12,0 C 95 % 0,0 l/m 6,0 km/h (2 Bft) SO 135 11,2 C 11,8 C 5,1 km/h (1 Bft)
30.08.2012 22:10 12,0 C 95 % 0,7 l/m 4,3 km/h (1 Bft) O-SO 112 11,2 C 11,9 C 10,1 km/h (2 Bft)
30.08.2012 22:15 12,0 C 95 % 0,0 l/m 3,5 km/h (1 Bft) O 90 11,2 C 11,9 C 2,7 km/h (1 Bft)
30.08.2012 22:20 12,0 C 95 % 0,7 l/m 3,2 km/h (1 Bft) N-NO 22 11,2 C 11,9 C 7,9 km/h (2 Bft)
30.08.2012 22:25 12,0 C 95 % 0,0 l/m 3,7 km/h (1 Bft) S-SO 157 11,2 C 11,9 C 6,3 km/h (2 Bft)
30.08.2012 22:30 12,0 C 95 % 0,7 l/m 4,2 km/h (1 Bft) S-SO 157 11,2 C 11,9 C 2,9 km/h (1 Bft)
30.08.2012 22:35 11,9 C 95 % 0,0 l/m 5,0 km/h (1 Bft) S-SO 157 11,1 C 11,8 C 4,5 km/h (1 Bft)
30.08.2012 22:40 11,9 C 95 % 0,0 l/m 3,9 km/h (1 Bft) S 180 11,1 C 11,7 C 0,0 km/h (0 Bft)
30.08.2012 22:45 11,9 C 95 % 0,7 l/m 2,7 km/h (1 Bft) S-SO 157 11,1 C 11,7 C 7,1 km/h (2 Bft)
30.08.2012 22:50 11,9 C 95 % 0,0 l/m 3,2 km/h (1 Bft) SO 135 11,1 C 11,8 C 4,0 km/h (1 Bft)
30.08.2012 22:55 11,9 C 95 % 0,0 l/m 3,9 km/h (1 Bft) O-SO 112 11,1 C 11,8 C 5,1 km/h (1 Bft)
30.08.2012 23:00 11,9 C 95 % 0,0 l/m 3,2 km/h (1 Bft) SO 135 11,1 C 11,8 C 2,9 km/h (1 Bft)
30.08.2012 23:05 11,9 C 95 % 0,0 l/m 3,2 km/h (1 Bft) O-SO 112 11,1 C 11,8 C 7,9 km/h (2 Bft)
30.08.2012 23:10 11,8 C 95 % 0,0 l/m 3,1 km/h (1 Bft) NW 315 11,0 C 11,7 C 3,5 km/h (1 Bft)
30.08.2012 23:15 11,7 C 95 % 0,7 l/m 2,4 km/h (1 Bft) O 90 10,9 C 11,7 C 2,6 km/h (1 Bft)
30.08.2012 23:20 11,7 C 95 % 0,0 l/m 1,4 km/h (1 Bft) NO 45 10,9 C 11,7 C 2,7 km/h (1 Bft)
30.08.2012 23:25 11,7 C 95 % 0,0 l/m 1,9 km/h (1 Bft) NO 45 10,9 C 11,6 C 2,9 km/h (1 Bft)
30.08.2012 23:30 11,6 C 95 % 0,0 l/m 2,6 km/h (1 Bft) NO 45 10,8 C 11,5 C 0,0 km/h (0 Bft)
30.08.2012 23:35 11,4 C 95 % 0,0 l/m 3,2 km/h (1 Bft) N-NO 22 10,6 C 11,4 C 5,5 km/h (1 Bft)
30.08.2012 23:40 11,4 C 95 % 0,0 l/m 2,4 km/h (1 Bft) N-NO 22 10,6 C 11,3 C 2,6 km/h (1 Bft)
30.08.2012 23:45 11,3 C 95 % 0,0 l/m 1,4 km/h (1 Bft) S 180 10,5 C 11,2 C 2,1 km/h (1 Bft)
30.08.2012 23:50 11,3 C 95 % 0,0 l/m 1,1 km/h (1 Bft) N-NO 22 10,5 C 11,2 C 1,6 km/h (1 Bft)
30.08.2012 23:55 11,2 C 95 % 0,0 l/m 0,8 km/h (0 Bft) NO 45 10,4 C 11,1 C 0,0 km/h (0 Bft)
_ Min-Zeit 23:55 13:10 - 10:15 - - 23:55 22:00 23:55
Minimum _ 11,2 C 51 % - 0,0 km/h (0 Bft) - - 10,4 C 9,8 C 0,0 km/h (0 Bft)
_ Max-Zeit 13:15 23:55 15:50 19:00 - - 11:50 13:20 21:50
Maximum _ 24,6 C 95 % 4,8 l/m 10,6 km/h
S (2 Bft)
- - 18,5 C 27,2 C 25,7 km/h
O-SO (4 Bft)
Durchschnitt _ 16,6 C 84 % #30,2 l/m 2,1 km/h (1 Bft) O-SO - 13,7 C 17,1 C 2,8 km/h (1 Bft)